• Join FlightAware (Why Join?)
  • Login
  • US Flag 
03:38PM EDT


 

Airport Tracker/Info


-or-


 

Live Flight TrackerFlight Track Log ✈ N274SR ✈ 15-Jan-2014 ✈ KMBS - KAZO

Flight Track Log - Related Links

Times and Time Zones

All times are in EST time to prevent confusion due to time zone crossing. See the N274SR flight status page for this flight to view local times or setup timezone preferences in your user account.

Time Position Orientation Groundspeed Altitude Reporting Facility
EST Latitude Longitude Course Direction KTS MPH feet Rate Location/Type
03:28PM 43.4567 -84.1422 217° Southwest 123 142 4,800  Level Cleveland Center
03:29PM 43.4297 -84.1744 221° Southwest 120 138 6,000 1,200 Climbing Cleveland Center
03:30PM 43.4028 -84.2075 222° Southwest 131 151 7,300 960 Climbing Cleveland Center
03:31PM 43.3416 -84.3019 219° Southwest  Level Estimated
03:31PM 43.3708 -84.2442 220° Southwest 141 162 8,000  Level Cleveland Center
03:32PM 43.3096 -84.3388 220° Southwest  Level Estimated
03:32PM 43.3342 -84.2875 221° Southwest 173 199 8,000  Level Cleveland Center
03:33PM 43.2953 -84.3333 221° Southwest 171 197 8,000  Level Cleveland Center
03:34PM 43.2600 -84.3764 222° Southwest 162 186 8,000  Level Cleveland Center
03:35PM 43.2231 -84.4194 220° Southwest 167 192 8,000  Level Cleveland Center
03:36PM 43.1861 -84.4619 220° Southwest 167 192 8,000  Level Cleveland Center
03:37PM 43.1519 -84.5019 221° Southwest 167 192 8,000  Level Cleveland Center
03:38PM 43.1150 -84.5444 220° Southwest 168 193 8,000  Level Cleveland Center
03:39PM 43.0778 -84.5875 220° Southwest 168 193 8,000  Level Cleveland Center
03:40PM 43.0411 -84.6308 221° Southwest 167 192 8,000  Level Cleveland Center
03:41PM 43.0036 -84.6733 220° Southwest 167 192 8,000  Level Cleveland Center
03:42PM 42.9661 -84.7169 220° Southwest 172 198 8,000  Level Cleveland Center
03:43PM 42.9289 -84.7611 221° Southwest 169 194 8,000  Level Cleveland Center
03:44PM 42.8947 -84.8000 220° Southwest 176 203 8,000  Level Cleveland Center
03:45PM 42.8514 -84.8506 221° Southwest 171 197 8,000  Level Chicago Center
03:46PM 42.8150 -84.8925 220° Southwest 171 197 8,000  Level Chicago Center
03:47PM 42.7781 -84.9336 219° Southwest 172 198 8,000  Level Chicago Center
03:49PM 42.7419 -84.9761 221° Southwest 172 198 8,000  Level Chicago Center
03:50PM 42.7053 -85.0169 219° Southwest 171 197 8,000 -60 Level Chicago Center
03:51PM 42.6608 -85.0672 220° Southwest 173 199 7,900  Descending Chicago Center
03:52PM 42.6258 -85.1089 221° Southwest 170 196 8,000  Climbing Chicago Center
03:53PM 42.5894 -85.1503 220° Southwest 170 196 8,000 -180 Level Chicago Center
03:54PM 42.5511 -85.1903 218° Southwest 173 199 7,700 -420 Descending Chicago Center
03:55PM 42.4986 -85.2036 191° South 190 219 7,200 -540 Descending Chicago Center
03:56PM 42.4469 -85.2156 190° South 188 216 6,700 -540 Descending Chicago Center
03:57PM 42.3961 -85.2306 192° South 187 215 6,100 -660 Descending Chicago Center
03:58PM 42.3347 -85.2467 191° South 187 215 5,400 -600 Descending Chicago Center
03:59PM 42.2883 -85.2611 193° South 177 204 4,900 -540 Descending Chicago Center
04:00PM 42.2450 -85.2717 190° South 173 199 4,300 -540 Descending Chicago Center
04:01PM 42.2036 -85.2972 205° Southwest 165 190 3,900 -540 Descending Chicago Center
04:02PM 42.1558 -85.3356 211° Southwest 167 192 3,300 -540 Descending Chicago Center
04:03PM 42.1186 -85.3664 212° Southwest 162 186 2,900 -240 Descending Chicago Center
04:04PM 42.0844 -85.3933 210° Southwest 153 176 2,900  Level Chicago Center
04:05PM 42.0706 -85.4347 246° West 144 166 2,900  Level Chicago Center
04:06PM 42.0592 -85.4792 251° West 134 154 2,900  Level Chicago Center
04:07PM 42.0839 -85.5131 315° West 134 154 2,900  Level Chicago Center
04:08PM 42.1264 -85.5303 343° North 133 153 2,900 -300 Level Chicago Center
04:09PM 42.1536 -85.5333 355° North 111 128 2,400 -540 Descending Chicago Center
04:10PM 42.1808 -85.5403 349° North 100 115 1,900 -540 Descending Chicago Center
04:11PM 42.2103 -85.5464 351° North 103 119 1,300 -600 Descending Chicago Center